Tracking 28126 objects as of 1-Oct-2023
HD Live streaming from Space Station
objects crossing your sky now

STARLINK-3576

Track STARLINK-3576 now!
10-day predictions
STARLINK-3576 is classified as:


NORAD ID: 51883
Int'l Code: 2022-022AH
Perigee: 545.9 km
Apogee: 547.8 km
Inclination: 53.2 °
Period: 95.4 minutes
Semi major axis: 6917 km
RCS: Unknown
Launch date: March 3, 2022
Source: United States (US)
Launch site: AIR FORCE EASTERN TEST RANGE (AFETR)
Your satellite tracking list
Your tracking list is empty




NASA's NSSDC Master Catalog

Two Line Element Set (TLE):
1 51883U 22022AH  23273.65693879  .00002220  00000-0  15749-3 0  9998
2 51883  53.2177  39.3041 0001322 102.0752 258.0388 15.08848811 88720
Source of the keplerian elements: AFSPC